TimeEDT,TemperatureF,Dew PointF,Humidity,Sea Level PressureIn,VisibilityMPH,Wind Direction,Wind SpeedMPH,Gust SpeedMPH,PrecipitationIn,Events,Conditions,WindDirDegrees,DateUTC
12:53 AM,68.0,68.0,100,30.11,10.0,SSE,3.5,-,N/A,,Overcast,160,2013-05-19 04:53:00
12:58 AM,68.7,67.3,95,30.11,10.0,South,2.3,-,N/A,,Mostly Cloudy,170,2013-05-19 04:58:00
1:03 AM,68.0,68.0,100,30.11,10.0,South,2.3,-,N/A,,Mostly Cloudy,180,2013-05-19 05:03:00
1:24 AM,68.0,66.2,94,30.10,10.0,SSE,1.2,-,N/A,,Light Drizzle,150,2013-05-19 05:24:00
1:51 AM,68.0,66.2,94,30.09,10.0,ESE,2.3,-,N/A,,Scattered Clouds,110,2013-05-19 05:51:00
1:58 AM,68.7,66.9,94,30.09,10.0,ESE,2.3,-,0.00,,Scattered Clouds,110,2013-05-19 05:58:00
2:08 AM,68.0,68.0,100,30.09,10.0,ESE,2.3,-,N/A,,Partly Cloudy,120,2013-05-19 06:08:00
2:28 AM,68.0,68.0,100,30.09,10.0,ESE,2.3,-,N/A,,Partly Cloudy,120,2013-05-19 06:28:00
2:33 AM,68.0,68.0,100,30.08,9.0,East,2.3,-,N/A,,Partly Cloudy,100,2013-05-19 06:33:00
2:58 AM,68.2,67.5,98,30.08,8.0,NE,2.3,-,N/A,,Scattered Clouds,50,2013-05-19 06:58:00
3:48 AM,68.0,68.0,100,30.08,10.0,ESE,2.3,-,N/A,,Mostly Cloudy,120,2013-05-19 07:48:00
3:58 AM,68.5,68.2,99,30.08,10.0,ESE,3.5,-,N/A,,Mostly Cloudy,120,2013-05-19 07:58:00
4:03 AM,68.0,68.0,100,30.08,10.0,SE,2.3,-,N/A,,Mostly Cloudy,130,2013-05-19 08:03:00
4:08 AM,68.0,68.0,100,30.08,10.0,SE,2.3,-,N/A,,Mostly Cloudy,130,2013-05-19 08:08:00
4:18 AM,68.0,68.0,100,30.08,9.0,East,2.3,-,N/A,,Mostly Cloudy,100,2013-05-19 08:18:00
4:58 AM,68.2,68.0,99,30.08,7.0,ESE,2.3,-,N/A,,Mostly Cloudy,110,2013-05-19 08:58:00
5:18 AM,68.0,68.0,100,30.08,7.0,ESE,2.3,-,N/A,,Scattered Clouds,120,2013-05-19 09:18:00
5:25 AM,68.0,68.0,100,30.08,6.0,North,-9999.0,-,N/A,,Scattered Clouds,0,2013-05-19 09:25:00
5:45 AM,68.0,68.0,100,30.08,7.0,Calm,Calm,-,N/A,,Mostly Cloudy,0,2013-05-19 09:45:00
5:50 AM,68.0,68.0,100,30.08,7.0,SSW,2.3,-,N/A,,Mostly Cloudy,210,2013-05-19 09:50:00
5:58 AM,68.0,67.6,99,30.09,7.0,South,2.3,-,N/A,,Mostly Cloudy,190,2013-05-19 09:58:00
6:03 AM,68.0,68.0,100,30.09,7.0,SSW,2.3,-,N/A,,Mostly Cloudy,200,2013-05-19 10:03:00
6:05 AM,68.0,68.0,100,30.09,7.0,SSW,2.3,-,N/A,,Overcast,200,2013-05-19 10:05:00
6:10 AM,68.0,68.0,100,30.09,6.0,South,2.3,-,N/A,,Overcast,190,2013-05-19 10:10:00
6:20 AM,68.0,68.0,100,30.09,5.0,South,2.3,-,N/A,,Mostly Cloudy,190,2013-05-19 10:20:00
6:50 AM,68.0,68.0,100,30.10,2.5,SSW,3.5,-,N/A,,Scattered Clouds,210,2013-05-19 10:50:00
6:55 AM,68.0,68.0,100,30.10,2.0,SSW,4.6,-,N/A,,Mostly Cloudy,200,2013-05-19 10:55:00
6:58 AM,67.6,67.6,100,30.10,2.5,SSW,3.5,-,N/A,,Mostly Cloudy,200,2013-05-19 10:58:00
7:03 AM,68.0,68.0,100,30.11,3.0,SSW,3.5,-,N/A,,Mostly Cloudy,200,2013-05-19 11:03:00
7:06 AM,68.0,68.0,100,30.11,4.0,South,3.5,-,N/A,Rain,Light Rain,190,2013-05-19 11:06:00
7:16 AM,68.0,68.0,100,30.11,2.5,South,3.5,-,N/A,Rain,Light Rain,190,2013-05-19 11:16:00
7:26 AM,69.8,69.8,100,30.11,4.0,South,4.6,-,N/A,Rain,Light Rain,170,2013-05-19 11:26:00
7:31 AM,69.8,69.8,100,30.11,6.0,South,4.6,-,N/A,,Light Drizzle,170,2013-05-19 11:31:00
7:38 AM,69.8,69.8,100,30.11,8.0,SSE,4.6,-,N/A,,Mostly Cloudy,160,2013-05-19 11:38:00
7:43 AM,69.8,69.8,100,30.11,9.0,SSE,3.5,-,N/A,,Scattered Clouds,160,2013-05-19 11:43:00
7:58 AM,70.2,70.2,100,30.12,10.0,South,4.6,-,0.01,,Clear,170,2013-05-19 11:58:00
8:14 AM,69.8,69.8,100,30.12,10.0,South,5.8,-,N/A,,Light Drizzle,190,2013-05-19 12:14:00
8:19 AM,69.8,69.8,100,30.12,10.0,South,5.8,-,N/A,Rain,Light Rain,190,2013-05-19 12:19:00
8:29 AM,69.8,68.0,94,30.13,10.0,South,6.9,-,N/A,Rain,Light Rain,190,2013-05-19 12:29:00
8:58 AM,70.5,66.7,88,30.13,10.0,South,6.9,-,0.02,Rain,Light Rain,170,2013-05-19 12:58:00
9:40 AM,71.6,66.2,83,30.13,10.0,SSE,3.5,-,N/A,,Partly Cloudy,150,2013-05-19 13:40:00
9:58 AM,72.5,67.3,84,30.12,10.0,SSE,4.6,-,0.01,,Partly Cloudy,150,2013-05-19 13:58:00
10:53 AM,75.2,66.2,73,30.12,10.0,SSE,8.1,-,N/A,,Mostly Cloudy,150,2013-05-19 14:53:00
10:58 AM,76.1,67.1,74,30.12,10.0,SE,9.2,-,N/A,,Mostly Cloudy,140,2013-05-19 14:58:00
11:08 AM,77.0,66.2,69,30.12,10.0,SSE,9.2,-,N/A,,Mostly Cloudy,150,2013-05-19 15:08:00
11:18 AM,77.0,66.2,69,30.11,10.0,South,8.1,-,N/A,,Mostly Cloudy,170,2013-05-19 15:18:00
11:38 AM,77.0,66.2,69,30.11,10.0,SSE,9.2,-,N/A,Thunderstorm,Mostly Cloudy,160,2013-05-19 15:38:00
11:46 AM,77.0,66.2,69,30.10,10.0,SE,10.4,-,N/A,Thunderstorm,Thunderstorm,140,2013-05-19 15:46:00
11:56 AM,77.0,66.2,69,30.10,10.0,SE,9.2,-,N/A,Thunderstorm,Thunderstorm,140,2013-05-19 15:56:00
11:58 AM,77.0,66.2,69,30.10,10.0,SE,8.1,-,N/A,Thunderstorm,Thunderstorm,140,2013-05-19 15:58:00
12:03 PM,77.0,66.2,69,30.10,10.0,SSE,6.9,-,N/A,Thunderstorm,Thunderstorm,150,2013-05-19 16:03:00
12:04 PM,77.0,66.2,69,30.10,10.0,SE,8.1,-,N/A,Thunderstorm,Thunderstorm,140,2013-05-19 16:04:00
12:08 PM,77.0,66.2,69,30.10,10.0,South,9.2,-,N/A,Rain-Thunderstorm,Light Thunderstorms and Rain,170,2013-05-19 16:08:00
12:29 PM,75.2,68.0,78,30.10,10.0,SSE,8.1,-,N/A,Thunderstorm,Light Drizzle,150,2013-05-19 16:29:00
12:31 PM,75.2,68.0,78,30.09,10.0,SSE,9.2,-,N/A,Thunderstorm,Scattered Clouds,150,2013-05-19 16:31:00
12:39 PM,75.2,66.2,73,30.09,10.0,SSE,8.1,-,N/A,Rain,Light Rain,150,2013-05-19 16:39:00
12:58 PM,75.4,67.8,77,30.08,10.0,SE,6.9,-,0.00,Rain,Light Rain,140,2013-05-19 16:58:00
12:59 PM,75.2,68.0,78,30.08,10.0,SE,5.8,-,N/A,,Scattered Clouds,130,2013-05-19 16:59:00
1:19 PM,75.2,66.2,73,30.07,10.0,ESE,5.8,-,N/A,Thunderstorm,Thunderstorm,110,2013-05-19 17:19:00
1:35 PM,75.2,66.2,73,30.07,10.0,ENE,6.9,-,N/A,Thunderstorm,Mostly Cloudy,70,2013-05-19 17:35:00
1:40 PM,75.2,66.2,73,30.08,10.0,ENE,6.9,-,N/A,Thunderstorm,Thunderstorm,60,2013-05-19 17:40:00
1:58 PM,75.0,66.9,76,30.07,10.0,NNE,8.1,-,0.00,Thunderstorm,Thunderstorm,20,2013-05-19 17:58:00
1:59 PM,75.2,66.2,73,30.07,10.0,NNE,9.2,-,N/A,Rain-Thunderstorm,Light Thunderstorms and Rain,20,2013-05-19 17:59:00
2:18 PM,73.4,68.0,83,30.05,4.0,NNW,10.4,-,N/A,Rain-Thunderstorm,Rain,340,2013-05-19 18:18:00
2:23 PM,73.4,68.0,83,30.04,5.0,NNW,11.5,-,N/A,Rain,Heavy Rain,340,2013-05-19 18:23:00
2:24 PM,73.4,68.0,83,30.04,5.0,NNW,11.5,-,N/A,Rain-Thunderstorm,Heavy Thunderstorms and Rain,340,2013-05-19 18:24:00
2:29 PM,71.6,68.0,88,30.03,1.8,NNW,15.0,-,N/A,Rain-Thunderstorm,Heavy Thunderstorms and Rain,330,2013-05-19 18:29:00
2:34 PM,69.8,64.4,83,30.05,1.0,NW,16.1,-,N/A,Rain-Thunderstorm,Light Thunderstorms and Rain,320,2013-05-19 18:34:00
2:39 PM,69.8,64.4,83,30.09,1.0,WNW,13.8,-,N/A,Rain-Thunderstorm,Heavy Thunderstorms and Rain,290,2013-05-19 18:39:00
2:45 PM,68.0,62.6,83,30.10,0.8,WSW,18.4,-,N/A,Rain-Thunderstorm,Heavy Thunderstorms and Rain,250,2013-05-19 18:45:00
2:50 PM,68.0,60.8,78,30.09,0.5,West,10.4,-,N/A,Rain-Thunderstorm,Heavy Thunderstorms and Rain,260,2013-05-19 18:50:00
2:55 PM,68.0,57.2,68,30.08,0.2,West,10.4,-,N/A,Rain-Thunderstorm,Heavy Thunderstorms and Rain,270,2013-05-19 18:55:00
2:58 PM,68.0,60.8,78,30.08,0.2,West,8.1,-,1.35,Rain-Thunderstorm,Heavy Thunderstorms and Rain,270,2013-05-19 18:58:00
3:03 PM,68.0,62.6,83,30.08,0.8,Variable,5.8,-,N/A,Rain-Thunderstorm,Heavy Thunderstorms and Rain,0,2013-05-19 19:03:00
3:08 PM,68.0,62.6,83,30.07,1.0,ESE,11.5,-,N/A,Rain-Thunderstorm,Heavy Thunderstorms and Rain,120,2013-05-19 19:08:00
3:13 PM,68.0,60.8,78,30.08,1.0,SE,10.4,-,N/A,Rain-Thunderstorm,Heavy Thunderstorms and Rain,140,2013-05-19 19:13:00
3:18 PM,66.2,60.8,83,30.08,1.5,SE,10.4,-,N/A,Rain-Thunderstorm,Heavy Thunderstorms and Rain,130,2013-05-19 19:18:00
3:23 PM,66.2,60.8,83,30.08,2.0,SE,8.1,-,N/A,Rain-Thunderstorm,Heavy Thunderstorms and Rain,140,2013-05-19 19:23:00
3:28 PM,66.2,60.8,83,30.08,1.8,SSE,8.1,-,N/A,Rain-Thunderstorm,Heavy Thunderstorms and Rain,160,2013-05-19 19:28:00
3:33 PM,66.2,60.8,83,30.09,2.5,SSE,9.2,-,N/A,Rain-Thunderstorm,Heavy Thunderstorms and Rain,150,2013-05-19 19:33:00
3:38 PM,66.2,62.6,88,30.10,2.5,SSW,10.4,-,N/A,Rain-Thunderstorm,Heavy Thunderstorms and Rain,200,2013-05-19 19:38:00
3:48 PM,66.2,62.6,88,30.09,1.8,South,5.8,-,N/A,Rain-Thunderstorm,Light Thunderstorms and Rain,190,2013-05-19 19:48:00
3:53 PM,66.2,62.6,88,30.09,2.5,SE,2.3,-,N/A,Rain-Thunderstorm,Light Thunderstorms and Rain,140,2013-05-19 19:53:00
3:54 PM,66.2,62.6,88,30.09,2.5,ESE,1.2,-,N/A,Rain-Thunderstorm,Light Rain,110,2013-05-19 19:54:00
3:58 PM,66.9,63.5,89,30.09,5.0,North,1.2,-,0.75,Rain-Thunderstorm,Heavy Rain,360,2013-05-19 19:58:00
4:08 PM,66.2,64.4,94,30.09,3.0,North,3.5,-,N/A,Rain-Thunderstorm,Rain,350,2013-05-19 20:08:00
4:18 PM,68.0,64.4,88,30.08,4.0,WNW,2.3,-,N/A,Rain,Rain,290,2013-05-19 20:18:00
4:36 PM,68.0,66.2,94,30.08,2.5,WNW,1.2,-,N/A,Rain-Thunderstorm,Thunderstorms and Rain,300,2013-05-19 20:36:00
4:46 PM,68.0,66.2,94,30.08,3.0,Calm,Calm,-,N/A,Rain-Thunderstorm,Thunderstorms and Rain,0,2013-05-19 20:46:00
4:57 PM,68.0,66.2,94,30.08,3.0,South,3.5,-,N/A,Rain,Rain,190,2013-05-19 20:57:00
4:58 PM,68.0,66.2,94,30.08,3.0,South,3.5,-,0.21,Rain,Rain,180,2013-05-19 20:58:00
5:58 PM,67.8,67.3,98,30.07,5.0,South,5.8,-,0.18,Rain,Rain,190,2013-05-19 21:58:00
6:08 PM,68.0,68.0,100,30.06,8.0,SSW,5.8,-,N/A,Rain,Light Rain,200,2013-05-19 22:08:00
6:12 PM,68.0,68.0,100,30.06,9.0,SSW,5.8,-,N/A,Rain,Light Rain,200,2013-05-19 22:12:00
6:22 PM,68.0,68.0,100,30.06,10.0,South,6.9,-,N/A,Rain,Light Rain,190,2013-05-19 22:22:00
6:27 PM,68.0,68.0,100,30.06,10.0,South,5.8,-,N/A,Rain,Light Rain,190,2013-05-19 22:27:00
6:58 PM,68.5,68.2,99,30.06,10.0,ESE,3.5,-,0.04,Rain,Light Rain,120,2013-05-19 22:58:00
7:01 PM,68.0,68.0,100,30.06,9.0,SE,3.5,-,N/A,Rain,Light Rain,130,2013-05-19 23:01:00
7:21 PM,68.0,68.0,100,30.05,10.0,ESE,2.3,-,N/A,Rain,Light Rain,120,2013-05-19 23:21:00
7:41 PM,68.0,68.0,100,30.05,10.0,East,3.5,-,N/A,,Light Drizzle,90,2013-05-19 23:41:00
7:51 PM,68.0,68.0,100,30.06,10.0,East,2.3,-,N/A,,Partly Cloudy,100,2013-05-19 23:51:00
7:55 PM,68.0,68.0,100,30.06,10.0,East,3.5,-,N/A,,Light Drizzle,90,2013-05-19 23:55:00
7:58 PM,68.7,68.7,100,30.06,10.0,East,3.5,-,0.01,,Light Drizzle,90,2013-05-19 23:58:00
8:28 PM,68.0,68.0,100,30.06,9.0,SE,3.5,-,N/A,,Light Drizzle,130,2013-05-20 00:28:00
8:29 PM,68.0,68.0,100,30.06,10.0,SE,4.6,-,N/A,,Mostly Cloudy,130,2013-05-20 00:29:00
8:54 PM,68.0,68.0,100,30.06,9.0,SE,3.5,-,N/A,,Overcast,140,2013-05-20 00:54:00
8:58 PM,68.4,68.4,100,30.06,9.0,SE,3.5,-,0.00,,Overcast,140,2013-05-20 00:58:00
9:03 PM,68.0,68.0,100,30.06,10.0,SE,3.5,-,N/A,,Overcast,140,2013-05-20 01:03:00
9:18 PM,68.0,68.0,100,30.06,9.0,South,2.3,-,N/A,,Overcast,170,2013-05-20 01:18:00
9:28 PM,68.0,68.0,100,30.06,10.0,SSE,2.3,-,N/A,,Overcast,160,2013-05-20 01:28:00
9:58 PM,68.2,68.2,100,30.08,9.0,South,2.3,-,N/A,,Overcast,180,2013-05-20 01:58:00
10:38 PM,68.0,68.0,100,30.09,7.0,SSE,2.3,-,N/A,,Overcast,150,2013-05-20 02:38:00
10:53 PM,68.0,68.0,100,30.09,5.0,South,4.6,-,N/A,,Overcast,170,2013-05-20 02:53:00
10:58 PM,68.5,68.5,100,30.09,3.0,South,4.6,-,N/A,,Overcast,170,2013-05-20 02:58:00
11:03 PM,68.0,68.0,100,30.09,2.0,South,4.6,-,N/A,,Overcast,170,2013-05-20 03:03:00
11:08 PM,68.0,68.0,100,30.09,1.8,SSE,3.5,-,N/A,,Overcast,150,2013-05-20 03:08:00
11:13 PM,68.0,68.0,100,30.10,1.5,SSE,3.5,-,N/A,,Overcast,150,2013-05-20 03:13:00
11:23 PM,68.0,68.0,100,30.09,1.2,ESE,2.3,-,N/A,,Overcast,120,2013-05-20 03:23:00
11:33 PM,68.0,68.0,100,30.09,1.0,ESE,2.3,-,N/A,,Mist,110,2013-05-20 03:33:00
11:53 PM,68.0,68.0,100,30.09,1.2,ESE,1.2,-,N/A,,Scattered Clouds,110,2013-05-20 03:53:00
11:58 PM,68.7,68.7,100,30.09,1.2,ESE,2.3,-,N/A,,Scattered Clouds,120,2013-05-20 03:58:00